Hourly Data Report for October 04, 2013

All times are specified in Local Standard Time (LST). Add 1 hour to adjust for Daylight Saving Time where and when it is observed.

QIKIQTARJUAQ A
NUNAVUT

67°32'48.000" N
64°01'54.000" W
5.50 m
2400577
YVM

Download Data

Hourly Data (October 2013)
Hourly Data Report for October 4, 2013
Temp Definition
°C
Dew Point Temp Definition
°C
Rel Hum Definition
%
Wind Dir Definition
10's deg

Wind Spd Definition
km/h
Visibility Definition
km
Stn Press Definition
kPa
Hmdx Definition


Wind Chill Definition


Weather Definition


TIME
00:00 Legend Double Dagger -2.3 -5.1 82   0 16.1 101.71     LegendNANA
01:00 Legend Double Dagger -2.6 -5.6 80 16 5 16.1 101.73   -5 LegendNANA
02:00 Legend Double Dagger -2.2 -5.7 77 20 11 16.1 101.75   -6 LegendNANA
03:00 Legend Double Dagger -2.0 -6.2 73 19 22 16.1 101.73   -8 LegendNANA
04:00 Legend Double Dagger -2.4 -7.2 70 18 24 16.1 101.73   -9 LegendNANA
05:00 Legend Double Dagger -3.4 -8.1 70 18 26 16.1 101.74   -10 LegendNANA
06:00 Legend Double Dagger -3.3 -8.3 69 19 22 16.1 101.76   -10 LegendNANA
07:00 Legend Double Dagger -3.5 -8.6 68 18 21 16.1 101.76   -10 LegendNANA
08:00 Legend Double Dagger -2.8 -8.7 64 17 22 16.1 101.74   -9 LegendNANA
09:00 Legend Double Dagger -2.9 -8.7 64 19 26 16.1 101.70   -10 LegendNANA
10:00 Legend Double Dagger -2.4 -6.8 72 20 28 16.1 101.65   -9 LegendNANA
11:00 Legend Double Dagger -2.4 -6.8 72 20 26 16.1 101.62   -9 LegendNANA
12:00 Legend Double Dagger -1.9 -6.3 72 18 26 16.1 101.59   -8 LegendNANA
13:00 Legend Double Dagger -1.5 -6.8 67 20 17 16.1 101.60   -7 LegendNANA
14:00 Legend Double Dagger -1.4 -6.5 68 21 15 16.1 101.60   -6 LegendNANA
15:00 Legend Double Dagger -1.5 -6.7 68 20 13 16.1 101.61   -6 LegendNANA
16:00 Legend Double Dagger -2.2 -6.3 74 LegendMM 4 16.1 101.59   -4 LegendNANA
17:00 Legend Double Dagger -2.4 -6.6 73   0 16.1 101.56     LegendNANA
18:00 Legend Double Dagger -2.2 -6.4 73 16 5 16.1 101.55   -4 LegendNANA
19:00 Legend Double Dagger -2.4 -6.3 75 15 8 16.1 101.53   -6 LegendNANA
20:00 Legend Double Dagger -2.4 -5.8 78 14 5 16.1 101.53   -4 LegendNANA
21:00 Legend Double Dagger -1.6 -5.3 76 4 5 16.1 101.52   -3 LegendNANA
22:00 Legend Double Dagger -1.0 -3.3 85 2 22 16.1 101.50   -7 LegendNANA
23:00 Legend Double Dagger -1.2 -3.7 83 35 24 16.1 101.49   -7 LegendNANA

Notes on Data Quality.

Legend

  • E = Estimated
  • M = Missing
  • NA = Not Available
  • ‡ = Partner data that is not subject to review by the National Climate Archives
Date modified: